W1HS Weather Reports


Display with metric or nautical units.
time (UTC)temp
F
wind
direction
speed
MPH
gust
MPH
rain 1hr
in
rain 24hr
in
rain mn
in
humidity
%
barometer
mb
20260504023518 43 315 2.0 3.0 0.00 0.00 0.00 51 989.5
20260504022518 43 315 2.0 4.0 0.00 0.00 0.00 51 989.5
20260504021518 43 0.0 1.0 0.00 0.00 0.00 52 989.5
20260504020518 44 315 2.0 3.0 0.00 0.00 0.00 50 989.5
20260504015519 44 315 2.0 3.0 0.00 0.00 0.00 48 989.3
20260504014520 44 0.0 1.0 0.00 0.00 0.00 48 989.2
20260504013521 44 315 1.0 3.0 0.00 0.00 0.00 49 989.2
20260504012519 44 0.0 0.0 0.00 0.00 0.00 48 989.0
20260504011519 44 0.0 1.0 0.00 0.00 0.00 49 988.9
20260504010518 44 0.0 1.0 0.00 0.00 0.00 49 988.7
20260504005519 44 0.0 0.0 0.00 0.00 0.00 49 988.6
20260504004527 44 0.0 0.0 0.00 0.00 0.00 49 988.5
20260504003519 44 0.0 0.0 0.00 0.00 0.00 48 988.5
20260504002518 45 0.0 0.0 0.00 0.00 0.00 48 988.4
20260504001518 45 0.0 1.0 0.00 0.00 0.00 48 988.3
20260504000522 46 0.0 3.0 0.00 0.00 0.00 47 988.2
20260503235518 46 315 1.0 3.0 0.00 0.00 0.00 46 988.1
20260503234518 47 0.0 0.0 0.00 0.00 0.00 46 988.0
20260503233518 47 338 1.0 3.0 0.00 0.00 0.00 45 987.9
20260503232519 48 293 1.0 3.0 0.00 0.00 0.00 45 988.0
20260503231518 48 0.0 0.0 0.00 0.00 0.00 46 988.0
20260503230522 48 315 3.0 7.0 0.00 0.00 0.00 44 988.0
20260503225527 48 338 5.0 11.0 0.00 0.00 0.00 45 987.8
20260503224520 48 315 6.0 12.0 0.00 0.00 0.00 43 987.9
20260503223518 49 270 8.0 14.0 0.00 0.00 0.00 43 987.9
20260503222520 49 45 5.0 10.0 0.00 0.00 0.00 44 987.9
20260503221519 49 315 5.0 8.0 0.00 0.00 0.00 46 987.8
20260503220522 48 315 4.0 9.0 0.00 0.00 0.00 47 987.8
20260503215518 48 315 9.0 18.0 0.00 0.00 0.00 45 987.7
20260503214519 48 315 10.0 14.0 0.00 0.00 0.00 45 987.6
20260503213518 47 315 8.0 12.0 0.00 0.00 0.00 48 987.6
20260503212522 47 315 4.0 7.0 0.00 0.00 0.00 48 987.6
20260503211524 47 293 3.0 8.0 0.00 0.00 0.00 48 987.6
20260503210524 47 293 6.0 9.0 0.00 0.00 0.00 47 987.5
20260503205518 48 293 14.0 18.0 0.00 0.00 0.00 46 987.6
20260503204518 47 315 6.0 13.0 0.00 0.00 0.00 48 987.6
20260503203520 47 315 6.0 11.0 0.00 0.00 0.00 47 987.6
20260503202522 48 293 6.0 11.0 0.00 0.00 0.00 45 987.5
20260503201520 48 338 5.0 11.0 0.00 0.00 0.00 45 987.4
20260503200518 48 315 3.0 5.0 0.00 0.00 0.00 46 987.4
20260503195520 48 293 11.0 18.0 0.00 0.00 0.00 47 987.5
20260503194520 48 293 4.0 7.0 0.00 0.00 0.00 48 987.6
20260503193519 47 338 4.0 10.0 0.00 0.00 0.00 47 987.6
20260503192522 47 293 11.0 15.0 0.00 0.00 0.00 46 987.6
20260503191520 47 315 8.0 16.0 0.00 0.00 0.00 45 987.6
20260503190522 47 315 9.0 13.0 0.00 0.00 0.00 45 987.6
20260503185623 47 293 7.0 14.0 0.00 0.00 0.00 47 987.6
20260503184720 46 293 11.0 17.0 0.00 0.00 0.00 46 987.6
20260503183720 47 293 11.0 16.0 0.00 0.00 0.00 46 987.6
20260503182719 47 293 9.0 24.0 0.00 0.00 0.00 46 987.5
20260503181720 48 23 10.0 21.0 0.00 0.00 0.00 45 987.3
20260503180719 49 338 4.0 8.0 0.00 0.00 0.00 45 987.3
20260503175719 49 293 5.0 11.0 0.00 0.00 0.00 44 987.2
20260503174720 48 338 3.0 8.0 0.00 0.00 0.00 43 987.1
20260503173930 47 315 8.0 13.0 0.00 0.00 0.00 42 987.1
20260503172721 47 315 9.0 14.0 0.00 0.00 0.00 46 987.2
20260503171845 48 315 7.0 15.0 0.00 0.00 0.00 43 987.1
20260503131019 42 23 2.0 6.0 0.00 0.01 0.00 78 988.4
20260503110124 38 0.0 0.0 0.00 0.01 0.00 89 988.5
20260503081532 37 0.0 0.0 0.00 0.06 0.00 90 988.9
20260503080723 37 0.0 0.0 0.00 0.06 0.00 90 988.9
20260503072619 37 0.0 0.0 0.00 0.06 0.00 89 989.1
20260503071618 37 0.0 0.0 0.00 0.07 0.00 89 989.2
20260503070618 37 0.0 0.0 0.00 0.07 0.00 88 989.3
20260503054818 37 0.0 0.0 0.00 0.12 0.00 89 989.9
20260503053818 37 0.0 0.0 0.00 0.13 0.00 89 989.9
20260503052819 37 0.0 0.0 0.00 0.14 0.00 88 990.0
20260503051820 37 0.0 0.0 0.00 0.15 0.00 88 989.9
20260503050818 37 0.0 0.0 0.00 0.15 0.00 86 990.0
20260503045818 37 0.0 0.0 0.00 0.15 0.00 85 990.3
20260503044818 37 0.0 0.0 0.00 0.15 0.00 84 990.1
20260503043818 38 0.0 0.0 0.00 0.15 0.00 83 990.4
20260503042818 38 0.0 0.0 0.00 0.15 0.00 82 990.4
20260503041818 39 0.0 0.0 0.00 0.15 0.00 80 990.8
20260503040818 39 0.0 0.0 0.00 0.15 0.00 80 990.9
20260503035819 39 0.0 0.0 0.00 0.15 0.15 79 991.0
20260503034818 39 0.0 0.0 0.00 0.15 0.15 80 990.9
20260503033819 40 0.0 0.0 0.00 0.15 0.15 79 991.0
20260503032823 40 0.0 0.0 0.00 0.15 0.15 79 991.1
20260503031819 41 0.0 0.0 0.00 0.15 0.15 78 991.0
20260503030818 41 0.0 0.0 0.00 0.15 0.15 78 991.1
20260503025818 41 0.0 0.0 0.00 0.15 0.15 78 991.1
20260503024818 42 0.0 0.0 0.00 0.15 0.15 77 991.2